QPF
0.00 0.01 0.01 0.02 0.02 0.03 0.02 0.02 0.02 0.03 0.01 0.01 0.01 0.00 0.00 0.00 0.00 0.00 0.00 0.01 0.01 0.01 0.00 0.01 0.01 0.00 0.00 0.00 0.00 0.00 0.00 0.00 0.00 0.00 0.00 0.00 0.00 0.00 0.00 0.00 0.00 0.00 0.00 0.00
0.00 0.00 0.00 0.01 0.01 0.02 0.02 0.02 0.02 0.02 0.01 0.00 0.00 0.00 0.00 0.00 0.00 0.00 0.00 0.00 0.00 0.00 0.00 0.00 0.00 0.00 0.00 0.00 0.00 0.00 0.00 0.00 0.00 0.00 0.00 0.00 0.00 0.00 0.00 0.00 0.00 0.00 0.00 0.00
0.00 0.00 0.01 0.02 0.03 0.03 0.02 0.01 0.01 0.01 0.01 0.00 0.00 0.00 0.01 0.00 0.00 0.00 0.00 0.00 0.00 0.00 0.00 0.00 0.00 0.00 0.00 0.00 0.00 0.00 0.00 0.00 0.00 0.00 0.00 0.00 0.00 0.00 0.00 0.00 0.00 0.00 0.00 0.00
0.01 0.01 0.01 0.03 0.03 0.02 0.01 0.01 0.01 0.00 0.00 0.00 0.00 0.00 0.00 0.00 0.00 0.00 0.00 0.00 0.00 0.00 0.00 0.00 0.00 0.00 0.00 0.00 0.00 0.00 0.00 0.00 0.00 0.00 0.00 0.00 0.00 0.00 0.00 0.00 0.00 0.00 0.00 0.00
0.02 0.02 0.02 0.02 0.01 0.01 0.01 0.01 0.01 0.00 0.00 0.00 0.00 0.00 0.00 0.00 0.00 0.00 0.00 0.00 0.00 0.00 0.00 0.00 0.00 0.00 0.00 0.00 0.00 0.00 0.00 0.00 0.00 0.00 0.00 0.00 0.00 0.00 0.00 0.00 0.00 0.00 0.00 0.00
0.02 0.02 0.01 0.01 0.01 0.01 0.00 0.01 0.00 0.00 0.00 0.00 0.00 0.00 0.00 0.00 0.00 0.00 0.00 0.00 0.00 0.00 0.00 0.00 0.00 0.00 0.00 0.00 0.00 0.00 0.00 0.00 0.00 0.00 0.00 0.00 0.00 0.00 0.00 0.00 0.00 0.00 0.00 0.00
0.01 0.01 0.01 0.01 0.01 0.01 0.00 0.00 0.00 0.00 0.00 0.00 0.00 0.00 0.00 0.00 0.00 0.00 0.00 0.00 0.00 0.00 0.00 0.00 0.00 0.00 0.00 0.00 0.00 0.00 0.00 0.00 0.00 0.00 0.00 0.00 0.00 0.00 0.00 0.00 0.00 0.00 0.00 0.00
0.00 0.00 0.00 0.00 0.00 0.00 0.00 0.00 0.00 0.00 0.00 0.00 0.00 0.00 0.00 0.00 0.00 0.00 0.00 0.00 0.00 0.00 0.00 0.00 0.00 0.00 0.00 0.00 0.00 0.00 0.00 0.00 0.00 0.00 0.00 0.00 0.00 0.00 0.00 0.00 0.00 0.00 0.00 0.00
0.00 0.00 0.00 0.00 0.00 0.00 0.00 0.00 0.00 0.00 0.00 0.00 0.00 0.00 0.00 0.00 0.00 0.00 0.00 0.00 0.00 0.00 0.00 0.00 0.00 0.00 0.00 0.00 0.00 0.00 0.00 0.00 0.00 0.00 0.00 0.00 0.00 0.00 0.00 0.00 0.00 0.00 0.01 0.01
0.00 0.00 0.00 0.00 0.00 0.00 0.00 0.00 0.00 0.00 0.00 0.00 0.00 0.00 0.00 0.00 0.00 0.00 0.00 0.00 0.00 0.00 0.00 0.00 0.00 0.00 0.00 0.00 0.00 0.00 0.00 0.00 0.00 0.00 0.00 0.00 0.00 0.00 0.00 0.00 0.00 0.00 0.00 0.01
0.00 0.00 0.00 0.00 0.00 0.00 0.00 0.00 0.00 0.00 0.00 0.00 0.00 0.00 0.00 0.00 0.00 0.00 0.00 0.00 0.00 0.00 0.00 0.00 0.00 0.00 0.00 0.00 0.00 0.00 0.00 0.00 0.00 0.00 0.00 0.00 0.00 0.00 0.00 0.00 0.00 0.00 0.00 0.00
0.00 0.00 0.00 0.00 0.00 0.00 0.00 0.00 0.00 0.00 0.00 0.00 0.00 0.00 0.00 0.00 0.00 0.00 0.00 0.00 0.00 0.00 0.00 0.00 0.00 0.00 0.00 0.00 0.00 0.00 0.00 0.00 0.00 0.00 0.00 0.00 0.00 0.00 0.00 0.00 0.00 0.00 0.00 0.00
0.00 0.00 0.00 0.00 0.00 0.00 0.00 0.00 0.00 0.00 0.00 0.00 0.00 0.01 0.00 0.00 0.00 0.00 0.00 0.00 0.00 0.00 0.00 0.00 0.00 0.00 0.00 0.00 0.00 0.00 0.00 0.00 0.00 0.00 0.00 0.00 0.00 0.00 0.00 0.00 0.00 0.00 0.00 0.00
0.00 0.00 0.00 0.00 0.00 0.00 0.00 0.00 0.00 0.00 0.00 0.00 0.00 0.01 0.00 0.00 0.00 0.00 0.00 0.00 0.00 0.00 0.00 0.00 0.00 0.00 0.00 0.00 0.00 0.00 0.00 0.00 0.00 0.00 0.00 0.00 0.00 0.00 0.00 0.00 0.00 0.00 0.00 0.00
0.00 0.00 0.00 0.00 0.00 0.00 0.00 0.00 0.00 0.00 0.00 0.00 0.00 0.00 0.00 0.00 0.00 0.00 0.00 0.00 0.00 0.00 0.00 0.00 0.00 0.00 0.00 0.00 0.00 0.00 0.00 0.00 0.00 0.00 0.00 0.00 0.00 0.00 0.00 0.00 0.00 0.00 0.00 0.00
0.00 0.00 0.00 0.00 0.00 0.00 0.00 0.00 0.00 0.00 0.00 0.00 0.00 0.00 0.00 0.00 0.00 0.00 0.00 0.00 0.00 0.00 0.00 0.00 0.00 0.00 0.00 0.00 0.00 0.00 0.00 0.00 0.00 0.00 0.00 0.00 0.00 0.00 0.00 0.00 0.00 0.00 0.00 0.00
0.00 0.00 0.00 0.00 0.00 0.00 0.00 0.00 0.00 0.00 0.00 0.00 0.01 0.00 0.00 0.00 0.00 0.00 0.00 0.00 0.00 0.00 0.00 0.00 0.00 0.00 0.00 0.00 0.00 0.00 0.00 0.00 0.00 0.00 0.00 0.00 0.00 0.00 0.00 0.00 0.00 0.00 0.00 0.00
0.00 0.00 0.00 0.00 0.00 0.00 0.00 0.00 0.00 0.00 0.00 0.00 0.00 0.00 0.00 0.00 0.00 0.00 0.00 0.00 0.00 0.00 0.00 0.00 0.00 0.00 0.00 0.00 0.00 0.00 0.00 0.00 0.00 0.00 0.00 0.00 0.00 0.00 0.00 0.00 0.00 0.00 0.00 0.00
0.00 0.00 0.00 0.00 0.00 0.00 0.00 0.00 0.00 0.00 0.00 0.00 0.00 0.00 0.00 0.00 0.00 0.00 0.00 0.00 0.00 0.00 0.00 0.00 0.00 0.00 0.00 0.00 0.00 0.00 0.00 0.00 0.00 0.00 0.00 0.00 0.00 0.00 0.00 0.00 0.00 0.00 0.00 0.00
0.00 0.00 0.00 0.00 0.00 0.00 0.00 0.00 0.00 0.00 0.00 0.00 0.00 0.00 0.00 0.00 0.00 0.00 0.00 0.00 0.00 0.00 0.00 0.00 0.00 0.00 0.00 0.00 0.00 0.00 0.00 0.00 0.00 0.00 0.00 0.00 0.00 0.00 0.00 0.00 0.00 0.00 0.00 0.00
0.00 0.00 0.00 0.00 0.00 0.00 0.00 0.00 0.00 0.00 0.00 0.00 0.00 0.00 0.00 0.00 0.00 0.00 0.00 0.00 0.00 0.00 0.00 0.00 0.00 0.00 0.00 0.00 0.00 0.00 0.00 0.00 0.00 0.00 0.00 0.00 0.00 0.00 0.00 0.00 0.00 0.00 0.00 0.00
0.00 0.00 0.00 0.00 0.00 0.00 0.00 0.00 0.00 0.00 0.00 0.00 0.00 0.00 0.00 0.00 0.00 0.00 0.00 0.00 0.00 0.00 0.00 0.00 0.00 0.00 0.00 0.00 0.00 0.00 0.00 0.00 0.00 0.00 0.00 0.00 0.00 0.00 0.00 0.00 0.00 0.00 0.00 0.00
0.00 0.00 0.00 0.00 0.00 0.00 0.00 0.00 0.00 0.00 0.00 0.00 0.00 0.00 0.00 0.00 0.00 0.00 0.00 0.00 0.00 0.00 0.00 0.00 0.00 0.00 0.00 0.00 0.00 0.00 0.00 0.00 0.00 0.00 0.00 0.00 0.00 0.00 0.00 0.00 0.00 0.00 0.00 0.00
0.00 0.00 0.00 0.00 0.00 0.00 0.00 0.00 0.00 0.00 0.00 0.00 0.00 0.00 0.00 0.00 0.00 0.00 0.00 0.00 0.00 0.00 0.00 0.00 0.00 0.00 0.00 0.00 0.00 0.00 0.00 0.00 0.00 0.00 0.00 0.00 0.00 0.00 0.00 0.00 0.00 0.00 0.00 0.00
0.00 0.00 0.00 0.00 0.00 0.00 0.00 0.00 0.00 0.00 0.00 0.00 0.00 0.00 0.00 0.00 0.00 0.00 0.00 0.00 0.00 0.00 0.00 0.00 0.00 0.01 0.00 0.00 0.00 0.00 0.00 0.00 0.00 0.00 0.00 0.00 0.00 0.00 0.00 0.00 0.01 0.00 0.00 0.00
0.00 0.00 0.00 0.00 0.00 0.00 0.00 0.00 0.00 0.00 0.00 0.00 0.00 0.00 0.00 0.00 0.00 0.00 0.00 0.00 0.00 0.00 0.00 0.00 0.00 0.00 0.00 0.00 0.00 0.00 0.00 0.00 0.00 0.00 0.00 0.00 0.00 0.00 0.01 0.01 0.01 0.01 0.01 0.01
MSLP
1014.26 1014.84 1015.26 1015.53 1015.66 1015.68 1015.64 1015.56 1015.45 1015.31 1015.12 1014.86 1014.52 1014.10 1013.62 1013.10 1012.61 1012.16 1011.81 1011.57 1011.44 1011.40 1011.43 1011.50 1011.58 1011.67 1011.78 1011.90 1012.08 1012.31 1012.61 1012.96 1013.34 1013.69 1013.99 1014.20 1014.31 1014.30 1014.20 1014.04 1013.87 1013.70 1013.57 1013.48
1014.70 1015.16 1015.48 1015.66 1015.74 1015.77 1015.80 1015.82 1015.85 1015.84 1015.76 1015.58 1015.27 1014.82 1014.25 1013.62 1012.98 1012.39 1011.91 1011.56 1011.35 1011.26 1011.26 1011.32 1011.41 1011.51 1011.62 1011.75 1011.93 1012.17 1012.49 1012.86 1013.26 1013.66 1013.99 1014.23 1014.36 1014.37 1014.27 1014.11 1013.92 1013.75 1013.61 1013.52
1014.92 1015.27 1015.48 1015.59 1015.66 1015.74 1015.87 1016.04 1016.23 1016.39 1016.45 1016.36 1016.07 1015.59 1014.93 1014.16 1013.37 1012.61 1011.98 1011.50 1011.19 1011.04 1011.01 1011.06 1011.16 1011.27 1011.41 1011.56 1011.77 1012.03 1012.37 1012.77 1013.20 1013.62 1013.99 1014.26 1014.41 1014.43 1014.35 1014.19 1014.00 1013.82 1013.68 1013.58
1014.94 1015.17 1015.29 1015.36 1015.46 1015.63 1015.90 1016.25 1016.63 1016.97 1017.18 1017.18 1016.93 1016.41 1015.66 1014.75 1013.78 1012.85 1012.04 1011.41 1010.99 1010.76 1010.70 1010.74 1010.85 1011.00 1011.17 1011.36 1011.60 1011.90 1012.26 1012.68 1013.13 1013.58 1013.97 1014.26 1014.43 1014.48 1014.41 1014.26 1014.07 1013.89 1013.74 1013.63
1014.79 1014.91 1014.97 1015.04 1015.20 1015.49 1015.92 1016.47 1017.07 1017.60 1017.95 1018.05 1017.83 1017.27 1016.43 1015.37 1014.23 1013.12 1012.14 1011.36 1010.82 1010.51 1010.40 1010.43 1010.56 1010.74 1010.94 1011.18 1011.45 1011.78 1012.16 1012.59 1013.06 1013.51 1013.91 1014.22 1014.41 1014.47 1014.42 1014.28 1014.10 1013.92 1013.77 1013.66
1014.55 1014.59 1014.61 1014.70 1014.94 1015.37 1015.98 1016.74 1017.54 1018.25 1018.75 1018.93 1018.74 1018.15 1017.22 1016.04 1014.74 1013.46 1012.31 1011.39 1010.74 1010.34 1010.18 1010.20 1010.34 1010.54 1010.78 1011.04 1011.33 1011.67 1012.05 1012.48 1012.94 1013.39 1013.79 1014.10 1014.31 1014.39 1014.36 1014.24 1014.08 1013.91 1013.76 1013.65
1014.29 1014.26 1014.27 1014.41 1014.75 1015.32 1016.10 1017.04 1018.02 1018.89 1019.51 1019.77 1019.60 1018.99 1018.00 1016.72 1015.30 1013.89 1012.62 1011.58 1010.82 1010.35 1010.14 1010.13 1010.26 1010.46 1010.70 1010.96 1011.25 1011.57 1011.94 1012.34 1012.77 1013.19 1013.58 1013.89 1014.11 1014.21 1014.21 1014.12 1013.99 1013.84 1013.70 1013.59
1014.07 1014.01 1014.03 1014.22 1014.66 1015.35 1016.28 1017.36 1018.47 1019.45 1020.16 1020.48 1020.34 1019.74 1018.72 1017.39 1015.91 1014.42 1013.07 1011.95 1011.12 1010.59 1010.32 1010.27 1010.36 1010.53 1010.74 1010.97 1011.22 1011.49 1011.80 1012.15 1012.53 1012.91 1013.27 1013.58 1013.81 1013.94 1013.97 1013.93 1013.83 1013.71 1013.60 1013.51
1013.94 1013.87 1013.92 1014.17 1014.68 1015.46 1016.48 1017.65 1018.83 1019.88 1020.64 1021.00 1020.89 1020.31 1019.31 1017.99 1016.51 1015.02 1013.66 1012.51 1011.64 1011.06 1010.74 1010.63 1010.66 1010.76 1010.91 1011.07 1011.24 1011.43 1011.66 1011.93 1012.24 1012.57 1012.89 1013.18 1013.42 1013.58 1013.66 1013.66 1013.62 1013.54 1013.46 1013.39
1013.92 1013.87 1013.96 1014.25 1014.80 1015.62 1016.67 1017.86 1019.05 1020.10 1020.87 1021.25 1021.18 1020.65 1019.72 1018.48 1017.08 1015.66 1014.34 1013.22 1012.36 1011.75 1011.38 1011.20 1011.15 1011.16 1011.21 1011.26 1011.33 1011.41 1011.54 1011.71 1011.93 1012.19 1012.47 1012.74 1012.98 1013.17 1013.29 1013.35 1013.36 1013.33 1013.29 1013.25
1014.03 1014.02 1014.14 1014.46 1015.02 1015.83 1016.84 1017.98 1019.11 1020.11 1020.85 1021.23 1021.19 1020.74 1019.93 1018.83 1017.57 1016.29 1015.08 1014.04 1013.22 1012.61 1012.20 1011.95 1011.80 1011.70 1011.62 1011.55 1011.49 1011.46 1011.46 1011.53 1011.66 1011.84 1012.06 1012.31 1012.54 1012.74 1012.90 1013.00 1013.05 1013.07 1013.07 1013.06
1014.26 1014.30 1014.46 1014.78 1015.32 1016.06 1016.98 1018.00 1019.02 1019.92 1020.59 1020.96 1020.96 1020.61 1019.94 1019.02 1017.96 1016.87 1015.82 1014.91 1014.15 1013.56 1013.13 1012.81 1012.56 1012.34 1012.14 1011.94 1011.75 1011.59 1011.48 1011.43 1011.46 1011.56 1011.72 1011.91 1012.12 1012.32 1012.48 1012.61 1012.70 1012.75 1012.78 1012.81
1014.59 1014.69 1014.88 1015.20 1015.68 1016.33 1017.11 1017.97 1018.83 1019.60 1020.18 1020.51 1020.56 1020.32 1019.81 1019.10 1018.26 1017.38 1016.53 1015.76 1015.09 1014.54 1014.09 1013.71 1013.37 1013.05 1012.73 1012.41 1012.10 1011.82 1011.60 1011.45 1011.38 1011.39 1011.47 1011.59 1011.74 1011.90 1012.05 1012.17 1012.27 1012.34 1012.40 1012.44
1015.00 1015.16 1015.38 1015.68 1016.10 1016.62 1017.25 1017.94 1018.62 1019.22 1019.70 1020.00 1020.08 1019.94 1019.60 1019.10 1018.49 1017.83 1017.18 1016.56 1015.99 1015.49 1015.03 1014.61 1014.19 1013.78 1013.36 1012.94 1012.53 1012.16 1011.84 1011.60 1011.43 1011.34 1011.31 1011.35 1011.41 1011.50 1011.59 1011.68 1011.76 1011.82 1011.89 1011.95
1015.48 1015.70 1015.93 1016.21 1016.55 1016.96 1017.42 1017.93 1018.43 1018.88 1019.25 1019.50 1019.60 1019.56 1019.37 1019.06 1018.66 1018.22 1017.74 1017.27 1016.81 1016.35 1015.90 1015.44 1014.98 1014.50 1014.00 1013.51 1013.03 1012.58 1012.19 1011.85 1011.59 1011.39 1011.25 1011.17 1011.12 1011.10 1011.11 1011.12 1011.15 1011.19 1011.24 1011.31
1015.99 1016.25 1016.50 1016.76 1017.02 1017.32 1017.64 1017.97 1018.31 1018.62 1018.89 1019.09 1019.21 1019.24 1019.18 1019.03 1018.82 1018.55 1018.23 1017.88 1017.50 1017.09 1016.65 1016.18 1015.68 1015.16 1014.62 1014.08 1013.56 1013.06 1012.60 1012.19 1011.83 1011.52 1011.26 1011.04 1010.86 1010.71 1010.59 1010.51 1010.46 1010.44 1010.47 1010.53
1016.50 1016.79 1017.05 1017.27 1017.47 1017.67 1017.86 1018.06 1018.26 1018.45 1018.64 1018.80 1018.92 1019.01 1019.05 1019.03 1018.96 1018.82 1018.63 1018.38 1018.07 1017.70 1017.27 1016.80 1016.28 1015.74 1015.18 1014.62 1014.07 1013.54 1013.03 1012.56 1012.11 1011.70 1011.30 1010.94 1010.61 1010.32 1010.06 1009.86 1009.71 1009.63 1009.61 1009.64
1016.98 1017.27 1017.51 1017.70 1017.85 1017.96 1018.06 1018.15 1018.25 1018.36 1018.48 1018.61 1018.75 1018.88 1018.98 1019.06 1019.08 1019.05 1018.94 1018.76 1018.50 1018.16 1017.75 1017.28 1016.76 1016.22 1015.66 1015.09 1014.53 1013.98 1013.44 1012.91 1012.39 1011.87 1011.36 1010.87 1010.39 1009.94 1009.55 1009.22 1008.96 1008.79 1008.70 1008.70
1017.39 1017.65 1017.85 1018.00 1018.09 1018.15 1018.18 1018.21 1018.24 1018.30 1018.39 1018.50 1018.65 1018.80 1018.96 1019.09 1019.18 1019.21 1019.16 1019.02 1018.79 1018.48 1018.08 1017.62 1017.11 1016.58 1016.02 1015.46 1014.90 1014.34 1013.78 1013.21 1012.63 1012.03 1011.42 1010.80 1010.19 1009.61 1009.08 1008.62 1008.25 1007.98 1007.81 1007.75
1017.69 1017.89 1018.03 1018.12 1018.17 1018.18 1018.18 1018.17 1018.18 1018.22 1018.30 1018.42 1018.58 1018.76 1018.94 1019.11 1019.24 1019.30 1019.29 1019.18 1018.97 1018.67 1018.29 1017.84 1017.35 1016.82 1016.28 1015.73 1015.18 1014.61 1014.03 1013.43 1012.80 1012.14 1011.45 1010.74 1010.03 1009.34 1008.69 1008.11 1007.62 1007.24 1006.98 1006.84
1017.85 1017.95 1018.02 1018.05 1018.06 1018.04 1018.02 1018.02 1018.04 1018.09 1018.19 1018.33 1018.51 1018.71 1018.92 1019.11 1019.26 1019.34 1019.34 1019.24 1019.05 1018.76 1018.39 1017.96 1017.48 1016.96 1016.43 1015.89 1015.34 1014.77 1014.18 1013.56 1012.90 1012.20 1011.46 1010.69 1009.90 1009.12 1008.38 1007.69 1007.10 1006.60 1006.23 1005.98
1017.85 1017.85 1017.83 1017.80 1017.76 1017.74 1017.73 1017.75 1017.81 1017.90 1018.04 1018.22 1018.43 1018.66 1018.88 1019.08 1019.23 1019.32 1019.32 1019.23 1019.05 1018.77 1018.42 1017.99 1017.52 1017.01 1016.48 1015.94 1015.38 1014.81 1014.22 1013.58 1012.91 1012.19 1011.42 1010.62 1009.78 1008.95 1008.13 1007.36 1006.66 1006.05 1005.55 1005.18
1017.68 1017.57 1017.46 1017.38 1017.32 1017.31 1017.33 1017.41 1017.52 1017.68 1017.88 1018.10 1018.35 1018.60 1018.83 1019.03 1019.18 1019.26 1019.26 1019.17 1018.99 1018.72 1018.37 1017.95 1017.48 1016.97 1016.43 1015.88 1015.32 1014.74 1014.13 1013.49 1012.81 1012.09 1011.32 1010.50 1009.66 1008.79 1007.92 1007.08 1006.29 1005.57 1004.95 1004.45
1017.35 1017.14 1016.96 1016.84 1016.79 1016.80 1016.89 1017.03 1017.22 1017.46 1017.72 1018.00 1018.27 1018.54 1018.78 1018.97 1019.11 1019.18 1019.17 1019.07 1018.88 1018.61 1018.25 1017.83 1017.35 1016.84 1016.29 1015.72 1015.14 1014.54 1013.92 1013.28 1012.60 1011.89 1011.13 1010.32 1009.48 1008.60 1007.70 1006.81 1005.95 1005.13 1004.40 1003.76
1016.87 1016.58 1016.36 1016.23 1016.21 1016.28 1016.44 1016.67 1016.95 1017.27 1017.59 1017.92 1018.22 1018.49 1018.72 1018.90 1019.02 1019.06 1019.03 1018.91 1018.71 1018.43 1018.07 1017.64 1017.15 1016.61 1016.04 1015.44 1014.83 1014.21 1013.57 1012.93 1012.26 1011.56 1010.82 1010.05 1009.22 1008.35 1007.45 1006.53 1005.61 1004.72 1003.89 1003.14
1016.25 1015.92 1015.70 1015.60 1015.64 1015.79 1016.04 1016.37 1016.74 1017.13 1017.51 1017.87 1018.19 1018.45 1018.66 1018.81 1018.89 1018.90 1018.83 1018.69 1018.47 1018.18 1017.80 1017.35 1016.84 1016.27 1015.67 1015.04 1014.39 1013.74 1013.09 1012.44 1011.77 1011.10 1010.39 1009.65 1008.86 1008.02 1007.14 1006.21 1005.27 1004.33 1003.43 1002.60
Thickness
5697 5688 5684 5692 5701 5703 5701 5698 5697 5707 5721 5718 5716 5721 5733 5742 5742 5741 5741 5741 5742 5745 5750 5750 5748 5745 5741 5737 5734 5731 5727 5723 5720 5715 5711 5708 5705 5703 5701 5699 5696 5693 5690 5687
5685 5685 5698 5705 5706 5704 5702 5697 5698 5708 5719 5718 5714 5720 5733 5740 5742 5744 5743 5742 5743 5744 5745 5746 5745 5742 5739 5735 5732 5728 5726 5723 5719 5715 5711 5707 5704 5701 5699 5697 5694 5691 5688 5685
5686 5694 5707 5705 5701 5700 5700 5698 5700 5703 5712 5716 5713 5714 5725 5736 5742 5745 5747 5746 5746 5745 5744 5743 5742 5740 5738 5734 5732 5730 5725 5722 5718 5714 5710 5706 5702 5700 5697 5695 5692 5690 5687 5683
5693 5704 5706 5703 5701 5702 5695 5710 5709 5707 5700 5693 5703 5689 5713 5722 5731 5739 5742 5743 5744 5746 5745 5743 5742 5739 5737 5736 5733 5729 5725 5721 5717 5713 5709 5705 5700 5696 5694 5692 5690 5688 5686 5682
5695 5703 5703 5701 5706 5708 5705 5715 5711 5706 5700 5691 5695 5690 5700 5716 5725 5732 5738 5741 5744 5745 5745 5744 5742 5741 5738 5735 5732 5728 5724 5720 5716 5712 5709 5705 5700 5697 5694 5691 5689 5687 5684 5681
5704 5713 5713 5712 5718 5717 5715 5709 5702 5693 5687 5679 5689 5688 5691 5707 5719 5727 5736 5740 5743 5744 5744 5743 5742 5739 5736 5733 5730 5726 5722 5718 5714 5711 5708 5704 5701 5696 5693 5690 5687 5685 5682 5680
5700 5709 5719 5722 5713 5714 5709 5692 5674 5673 5667 5674 5689 5688 5692 5717 5725 5728 5731 5736 5740 5742 5741 5740 5738 5736 5733 5731 5728 5724 5720 5716 5713 5710 5707 5704 5701 5697 5693 5690 5687 5684 5680 5678
5690 5691 5715 5722 5718 5709 5705 5696 5675 5666 5665 5670 5684 5686 5702 5723 5728 5732 5734 5736 5739 5739 5738 5738 5737 5735 5733 5730 5726 5722 5719 5715 5712 5709 5706 5704 5700 5697 5693 5691 5687 5684 5681 5679
5693 5697 5722 5728 5729 5719 5704 5695 5696 5677 5673 5667 5676 5690 5708 5725 5726 5729 5730 5732 5732 5734 5735 5735 5735 5733 5731 5728 5725 5722 5718 5714 5712 5709 5706 5702 5700 5697 5694 5691 5688 5684 5682 5680
5709 5702 5716 5726 5728 5721 5715 5699 5685 5676 5664 5660 5672 5678 5683 5705 5712 5717 5721 5723 5727 5730 5731 5732 5732 5731 5730 5728 5725 5721 5717 5714 5711 5708 5705 5703 5700 5697 5694 5690 5687 5685 5683 5681
5717 5702 5706 5715 5714 5711 5707 5697 5683 5671 5671 5659 5660 5670 5698 5701 5707 5709 5713 5717 5720 5724 5726 5727 5727 5728 5726 5724 5721 5718 5715 5712 5710 5707 5704 5702 5699 5697 5693 5690 5688 5685 5683 5681
5712 5697 5691 5705 5718 5720 5716 5704 5688 5678 5670 5663 5659 5669 5705 5703 5704 5706 5710 5714 5717 5720 5721 5722 5722 5721 5720 5719 5717 5715 5713 5711 5709 5707 5703 5701 5699 5696 5692 5690 5688 5686 5683 5681
5714 5698 5684 5688 5697 5709 5708 5703 5694 5681 5667 5658 5658 5675 5702 5701 5702 5703 5705 5708 5711 5714 5716 5716 5715 5715 5715 5714 5714 5712 5711 5709 5707 5705 5702 5699 5697 5694 5692 5690 5688 5686 5683 5681
5717 5698 5689 5683 5687 5699 5701 5701 5694 5685 5668 5663 5666 5677 5689 5692 5694 5697 5699 5702 5705 5707 5708 5709 5708 5709 5710 5710 5709 5709 5708 5707 5705 5702 5700 5698 5696 5694 5692 5690 5687 5685 5683 5680
5713 5698 5701 5699 5702 5701 5700 5699 5695 5688 5680 5672 5677 5676 5680 5684 5686 5689 5693 5696 5699 5700 5702 5702 5702 5703 5704 5705 5706 5705 5705 5705 5703 5700 5698 5697 5695 5693 5690 5688 5686 5684 5681 5680
5702 5698 5698 5696 5698 5697 5694 5694 5692 5688 5683 5679 5675 5674 5682 5683 5683 5684 5686 5688 5689 5691 5693 5695 5697 5698 5699 5700 5701 5702 5702 5701 5699 5697 5696 5695 5692 5690 5688 5686 5684 5681 5679 5677
5691 5692 5686 5681 5685 5693 5682 5688 5687 5682 5680 5677 5670 5672 5677 5677 5677 5677 5679 5680 5680 5682 5685 5687 5689 5691 5693 5695 5697 5697 5698 5696 5694 5693 5692 5690 5688 5687 5685 5684 5681 5678 5676 5675
5689 5681 5670 5671 5680 5673 5680 5690 5688 5679 5675 5676 5675 5673 5673 5673 5674 5674 5674 5673 5673 5676 5678 5680 5683 5685 5688 5690 5691 5692 5691 5689 5688 5687 5686 5686 5684 5682 5681 5679 5677 5676 5674 5671
5688 5681 5667 5660 5665 5668 5679 5685 5682 5676 5670 5673 5670 5670 5670 5671 5670 5667 5669 5667 5667 5668 5670 5672 5675 5678 5680 5682 5683 5683 5682 5681 5680 5680 5680 5680 5679 5678 5676 5675 5674 5673 5670 5669
5680 5677 5664 5657 5664 5661 5672 5684 5685 5676 5661 5669 5667 5664 5664 5662 5651 5653 5660 5660 5661 5662 5663 5665 5667 5670 5672 5673 5674 5673 5672 5671 5672 5673 5674 5673 5672 5672 5672 5672 5671 5669 5667 5666
5669 5664 5658 5653 5656 5660 5673 5678 5678 5657 5655 5664 5662 5659 5656 5650 5646 5649 5652 5652 5652 5653 5654 5656 5657 5657 5659 5661 5662 5661 5661 5662 5665 5666 5666 5666 5665 5665 5666 5665 5665 5664 5662 5660
5664 5658 5652 5646 5648 5654 5670 5669 5660 5656 5659 5657 5655 5652 5649 5646 5645 5644 5643 5642 5642 5643 5644 5644 5644 5644 5646 5647 5648 5648 5649 5653 5654 5655 5656 5657 5657 5657 5659 5657 5657 5656 5655 5653
5660 5660 5655 5653 5655 5660 5662 5661 5660 5656 5652 5649 5646 5645 5642 5639 5636 5634 5632 5631 5630 5630 5630 5631 5630 5631 5633 5633 5633 5634 5638 5641 5642 5643 5645 5646 5647 5647 5648 5648 5648 5647 5646 5646
5657 5656 5651 5649 5653 5656 5655 5654 5653 5650 5646 5643 5640 5637 5633 5628 5626 5623 5620 5618 5617 5617 5616 5616 5616 5616 5618 5620 5620 5621 5624 5627 5629 5630 5632 5634 5635 5637 5637 5638 5639 5639 5639 5639
5652 5650 5644 5642 5645 5646 5648 5646 5644 5641 5638 5634 5631 5627 5623 5619 5615 5611 5608 5605 5603 5602 5601 5600 5599 5600 5602 5605 5606 5608 5610 5612 5613 5616 5618 5619 5621 5624 5626 5628 5629 5632 5635 5636
5641 5643 5639 5639 5643 5638 5637 5638 5636 5631 5627 5624 5619 5615 5612 5607 5602 5599 5595 5592 5590 5588 5587 5586 5586 5586 5588 5590 5591 5593 5594 5595 5597 5600 5603 5605 5607 5609 5612 5615 5618 5621 5624 5628